DW8534 Weather Reports


Display with metric or nautical units.
time (UTC)temp
F
wind
direction
speed
MPH
gust
MPH
rain 1hr
in
rain 24hr
in
rain mn
in
humidity
%
barometer
mb
20200221184047 45 22 0.0 0.0 0.00 0.00 0.00 53 1036.4
20200221183550 45 264 0.0 0.0 0.00 0.00 0.00 53 1036.4
20200221183104 46 266 0.0 0.0 0.00 0.00 0.00 53 1036.4
20200221182546 45 9 0.0 0.0 0.00 0.00 0.00 56 1036.7
20200221182045 45 297 0.0 0.0 0.00 0.00 0.00 55 1036.7
20200221181626 45 294 0.0 0.0 0.00 0.00 0.00 53 1036.7
20200221181100 45 346 0.0 0.0 0.00 0.00 0.00 56 1036.9
20200221180601 44 44 0.0 0.0 0.00 0.00 0.00 58 1036.9
20200221180116 44 294 0.0 0.0 0.00 0.00 0.00 58 1036.9
20200221175609 44 34 0.0 0.0 0.00 0.00 0.00 58 1037.5
20200221175050 43 47 0.0 0.0 0.00 0.00 0.00 59 1037.5
20200221174631 43 32 0.0 0.0 0.00 0.00 0.00 59 1037.5
20200221174038 43 62 0.0 0.0 0.00 0.00 0.00 57 1037.9
20200221173539 43 22 0.0 0.0 0.00 0.00 0.00 57 1037.9
20200221173047 43 53 0.0 0.0 0.00 0.00 0.00 59 1037.9
20200221172537 42 290 0.0 0.0 0.00 0.00 0.00 58 1038.0
20200221172036 42 286 0.0 0.0 0.00 0.00 0.00 57 1038.0
20200221171546 42 18 0.0 0.0 0.00 0.00 0.00 58 1038.0
20200221171033 41 36 0.0 0.0 0.00 0.00 0.00 58 1038.0
20200221170532 41 24 0.0 0.0 0.00 0.00 0.00 60 1038.0
20200221170143 41 27 0.0 0.0 0.00 0.00 0.00 61 1038.0
20200221165539 41 21 0.0 0.0 0.00 0.00 0.00 59 1038.1
20200221165032 41 22 0.0 0.0 0.00 0.00 0.00 61 1038.1
20200221164603 41 44 0.0 0.0 0.00 0.00 0.00 61 1038.1
20200221164030 41 308 0.0 0.0 0.00 0.00 0.00 60 1038.1
20200221163529 40 26 0.0 0.0 0.00 0.00 0.00 60 1038.1
20200221163033 40 5 0.0 0.0 0.00 0.00 0.00 63 1038.1
20200221162526 39 5 0.0 0.0 0.00 0.00 0.00 63 1038.0
20200221162031 39 360 0.0 0.0 0.00 0.00 0.00 63 1038.0
20200221161549 39 38 0.0 0.0 0.00 0.00 0.00 65 1038.0
20200221161025 39 22 0.0 0.0 0.00 0.00 0.00 64 1038.0
20200221160523 38 51 0.0 0.0 0.00 0.00 0.00 64 1038.0
20200221160022 38 37 0.0 0.0 0.00 0.00 0.00 65 1038.0
20200221155521 38 59 0.0 0.0 0.00 0.00 0.00 65 1038.1
20200221155034 38 67 1.0 0.0 0.00 0.00 0.00 65 1038.1
20200221154520 38 39 0.0 0.0 0.00 0.00 0.00 65 1038.1
20200221154022 38 51 0.0 0.0 0.00 0.00 0.00 66 1038.3
20200221153519 37 12 0.0 0.0 0.00 0.00 0.00 66 1038.3
20200221153020 37 24 0.0 0.0 0.00 0.00 0.00 69 1038.3
20200221152520 36 355 2.0 0.0 0.00 0.00 0.00 66 1038.4
20200221152020 36 10 3.0 0.0 0.00 0.00 0.00 66 1038.4
20200221151600 36 5 4.0 0.0 0.00 0.00 0.00 67 1038.4
20200221151017 36 28 4.0 0.0 0.00 0.00 0.00 69 1038.0
20200221150517 35 32 4.0 0.0 0.00 0.00 0.00 68 1038.0
20200221150030 35 19 4.0 0.0 0.00 0.00 0.00 69 1038.0
20200221145520 34 9 4.0 0.0 0.00 0.00 0.00 69 1037.9
20200221145018 34 13 4.0 0.0 0.00 0.00 0.00 70 1037.9
20200221144550 34 5 5.0 0.0 0.00 0.00 0.00 71 1037.9
20200221144019 33 15 5.0 0.0 0.00 0.00 0.00 72 1037.8
20200221143513 33 30 6.0 0.0 0.00 0.00 0.00 72 1037.8
20200221143104 33 19 6.0 0.0 0.00 0.00 0.00 72 1037.8
20200221142512 33 20 5.0 0.0 0.00 0.00 0.00 72 1037.7
20200221142013 33 12 4.0 0.0 0.00 0.00 0.00 73 1037.7
20200221141530 33 24 4.0 0.0 0.00 0.00 0.00 74 1037.7
20200221141029 33 26 5.0 0.0 0.00 0.00 0.00 74 1037.4
20200221140511 32 23 6.0 0.0 0.00 0.00 0.00 74 1037.4
20200221140032 32 24 6.0 0.0 0.00 0.00 0.00 75 1037.4
20200221135514 32 19 5.0 0.0 0.00 0.00 0.00 76 1037.2
20200221135010 32 10 5.0 0.0 0.00 0.00 0.00 77 1037.2
20200221134514 31 30 4.0 0.0 0.00 0.00 0.00 78 1037.2
20200221134010 31 346 3.0 0.0 0.00 0.00 0.00 79 1037.3
20200221133524 31 360 2.0 0.0 0.00 0.00 0.00 80 1037.3
20200221133018 30 349 2.0 0.0 0.00 0.00 0.00 81 1037.3
20200221132525 30 342 1.0 0.0 0.00 0.00 0.00 81 1037.2
20200221132009 30 339 1.0 0.0 0.00 0.00 0.00 82 1037.2
20200221131511 30 274 0.0 0.0 0.00 0.00 0.00 82 1037.2
20200221131010 30 329 1.0 0.0 0.00 0.00 0.00 82 1037.0
20200221130507 30 298 1.0 0.0 0.00 0.00 0.00 81 1037.0
20200221130012 30 298 2.0 0.0 0.00 0.00 0.00 81 1037.0
20200221125506 30 300 2.0 0.0 0.00 0.00 0.00 81 1036.8
20200221125006 30 300 2.0 0.0 0.00 0.00 0.00 81 1036.8
20200221124508 30 300 1.0 0.0 0.00 0.00 0.00 81 1036.8
20200221124012 30 300 1.0 0.0 0.00 0.00 0.00 80 1036.7
20200221123504 31 300 1.0 0.0 0.00 0.00 0.00 80 1036.7
20200221123004 31 302 1.0 0.0 0.00 0.00 0.00 80 1036.7
20200221122503 31 336 2.0 0.0 0.00 0.00 0.00 80 1036.5
20200221122006 31 350 2.0 0.0 0.00 0.00 0.00 80 1036.5
20200221121503 31 336 2.0 0.0 0.00 0.00 0.00 80 1036.5
20200221121005 31 336 2.0 0.0 0.00 0.00 0.00 80 1036.3
20200221120506 31 355 2.0 0.0 0.00 0.00 0.00 80 1036.3
20200221120001 31 350 3.0 0.0 0.00 0.00 0.00 80 1036.3
20200221115501 31 5 3.0 0.0 0.00 0.00 0.00 80 1036.4
20200221114624 31 360 3.0 0.0 0.00 0.00 0.00 79 1036.4
20200221114103 32 10 4.0 0.0 0.00 0.00 0.00 79 1036.2
20200221113608 32 355 3.0 0.0 0.00 0.00 0.00 79 1036.2
20200221113140 32 350 4.0 0.0 0.00 0.00 0.00 78 1036.2
20200221112603 32 355 6.0 0.0 0.00 0.00 0.00 78 1035.8
20200221112104 32 30 7.0 0.0 0.00 0.00 0.00 78 1035.8
20200221111637 32 39 5.0 0.0 0.00 0.00 0.00 78 1035.8
20200221111056 32 360 5.0 0.0 0.00 0.00 0.00 78 1035.7
20200221110559 32 28 7.0 0.0 0.00 0.00 0.00 78 1035.7
20200221110152 32 19 6.0 0.0 0.00 0.00 0.00 78 1035.7
20200221105555 32 332 6.0 0.0 0.00 0.00 0.00 78 1035.7
20200221105055 32 24 5.0 0.0 0.00 0.00 0.00 79 1035.7
20200221104625 32 22 4.0 0.0 0.00 0.00 0.00 79 1035.7
20200221104054 33 360 4.0 0.0 0.00 0.00 0.00 78 1035.7
20200221103553 33 343 5.0 0.0 0.00 0.00 0.00 78 1035.7
20200221103157 33 360 6.0 0.0 0.00 0.00 0.00 78 1035.7
20200221102557 33 5 6.0 0.0 0.00 0.00 0.00 78 1035.7
20200221102052 33 28 7.0 0.0 0.00 0.00 0.00 78 1035.7
20200221101624 33 30 7.0 0.0 0.00 0.00 0.00 78 1035.7
20200221101051 33 28 7.0 0.0 0.00 0.00 0.00 78 1035.6
20200221100550 33 19 7.0 0.0 0.00 0.00 0.00 79 1035.6
20200221100149 33 17 6.0 0.0 0.00 0.00 0.00 79 1035.6
20200221095607 33 360 5.0 0.0 0.00 0.00 0.00 79 1035.7
20200221095107 33 355 4.0 0.0 0.00 0.00 0.00 78 1035.7
20200221094639 33 43 6.0 0.0 0.00 0.00 0.00 78 1035.7
20200221094051 34 360 7.0 0.0 0.00 0.00 0.00 77 1035.7
20200221093546 34 24 7.0 0.0 0.00 0.00 0.00 77 1035.7
20200221093134 34 22 6.0 0.0 0.00 0.00 0.00 77 1035.7
20200221092545 34 31 6.0 0.0 0.00 0.00 0.00 77 1035.7
20200221092101 34 346 6.0 0.0 0.00 0.00 0.00 77 1035.7
20200221091043 34 22 7.0 0.0 0.00 0.00 0.00 76 1035.7
20200221090542 34 28 8.0 0.0 0.00 0.00 0.00 76 1035.7
20200221090109 34 355 7.0 0.0 0.00 0.00 0.00 76 1035.7
20200221085545 34 344 8.0 0.0 0.00 0.00 0.00 75 1035.9
20200221085045 35 34 7.0 0.0 0.00 0.00 0.00 75 1035.9
20200221084612 35 360 7.0 0.0 0.00 0.00 0.00 76 1035.9
20200221084047 35 20 7.0 0.0 0.00 0.00 0.00 75 1036.0
20200221083543 35 13 8.0 0.0 0.00 0.00 0.00 75 1036.0
20200221083101 35 38 8.0 0.0 0.00 0.00 0.00 75 1036.0
20200221082540 35 355 7.0 0.0 0.00 0.00 0.00 75 1036.2
20200221082039 35 26 7.0 0.0 0.00 0.00 0.00 75 1036.2
20200221081625 35 28 7.0 0.0 0.00 0.00 0.00 74 1036.2
20200221081045 35 25 7.0 0.0 0.00 0.00 0.00 74 1036.3
20200221080553 35 355 7.0 0.0 0.00 0.00 0.00 73 1036.3
20200221080116 36 28 7.0 0.0 0.00 0.00 0.00 73 1036.3
20200221075538 36 23 7.0 0.0 0.00 0.00 0.00 73 1036.5
20200221075037 36 22 7.0 0.0 0.00 0.00 0.00 73 1036.5
20200221074550 36 14 7.0 0.0 0.00 0.00 0.00 72 1036.5
20200221074030 36 17 7.0 0.0 0.00 0.00 0.00 72 1036.6
20200221073546 36 327 7.0 0.0 0.00 0.00 0.00 72 1036.6
20200221073041 36 11 6.0 0.0 0.00 0.00 0.00 72 1036.6
20200221072528 36 11 7.0 0.0 0.00 0.00 0.00 72 1036.6
20200221072027 36 5 7.0 0.0 0.00 0.00 0.00 72 1036.6
20200221071609 37 20 7.0 0.0 0.00 0.00 0.00 71 1036.6
20200221071029 37 47 8.0 0.0 0.00 0.00 0.00 72 1036.4
20200221070524 37 28 8.0 0.0 0.00 0.00 0.00 71 1036.4
20200221070052 37 26 9.0 0.0 0.00 0.00 0.00 72 1036.4
20200221065523 37 24 9.0 0.0 0.00 0.00 0.00 72 1036.3
20200221065022 37 19 7.0 0.0 0.00 0.00 0.00 72 1036.3
20200221064540 37 32 7.0 0.0 0.00 0.00 0.00 72 1036.3
20200221064022 37 25 8.0 0.0 0.00 0.00 0.00 72 1036.2
20200221063520 37 28 8.0 0.0 0.00 0.00 0.00 72 1036.2
20200221063031 37 26 7.0 0.0 0.00 0.00 0.00 72 1036.2
20200221062525 37 27 8.0 0.0 0.00 0.00 0.00 72 1036.3
20200221062025 37 32 8.0 0.0 0.00 0.00 0.00 72 1036.3
20200221061525 37 38 7.0 0.0 0.00 0.00 0.00 72 1036.3
20200221061033 38 26 8.0 0.0 0.00 0.00 0.00 72 1036.2
20200221060520 38 15 8.0 0.0 0.00 0.00 0.00 72 1036.2
20200221060025 38 25 8.0 0.0 0.00 0.00 0.18 72 1036.2
20200221055516 38 28 7.0 0.0 0.00 0.00 0.18 72 1036.1
20200221055011 38 27 7.0 0.0 0.00 0.00 0.18 73 1036.1
20200221054513 38 21 6.0 0.0 0.00 0.00 0.18 73 1036.1
20200221054024 38 27 6.0 0.0 0.00 0.00 0.18 73 1036.1
20200221053510 38 17 7.0 0.0 0.00 0.00 0.18 73 1036.1
20200221053011 38 22 6.0 0.0 0.00 0.00 0.18 73 1036.1
20200221052510 38 28 6.0 0.0 0.00 0.00 0.18 73 1036.2
20200221052011 38 20 6.0 0.0 0.00 0.00 0.18 73 1036.2
20200221051522 39 24 6.0 0.0 0.00 0.00 0.18 73 1036.2
20200221051007 39 24 5.0 0.0 0.00 0.00 0.18 73 1036.1
20200221050510 39 20 5.0 0.0 0.00 0.00 0.18 73 1036.1
20200221050008 39 26 5.0 0.0 0.00 0.00 0.18 72 1036.1
20200221045506 39 25 5.0 0.0 0.00 0.00 0.18 72 1036.1
20200221045005 39 30 6.0 0.0 0.00 0.00 0.18 72 1036.1
20200221044520 39 31 6.0 0.0 0.00 0.00 0.18 72 1036.1
20200221044005 39 34 5.0 0.0 0.00 0.00 0.18 72 1036.0
20200221043504 39 39 4.0 0.0 0.00 0.00 0.18 73 1036.0
20200221043003 39 19 5.0 0.0 0.00 0.00 0.18 72 1036.0
20200221042502 39 24 6.0 0.0 0.00 0.00 0.18 72 1035.8
20200221042002 39 42 6.0 0.0 0.00 0.00 0.18 72 1035.8
20200221041503 40 32 7.0 0.0 0.00 0.00 0.18 72 1035.8
20200221041108 40 34 7.0 0.0 0.00 0.00 0.18 71 1035.7
20200221040604 40 24 7.0 0.0 0.00 0.00 0.18 71 1035.7
20200221040230 40 27 7.0 0.0 0.00 0.00 0.18 71 1035.7
20200221035559 40 31 7.0 0.0 0.00 0.00 0.18 71 1035.6
20200221035105 40 9 7.0 0.0 0.00 0.00 0.18 72 1035.6
20200221034720 40 31 8.0 0.0 0.00 0.00 0.18 72 1035.6
20200221034057 40 27 7.0 0.0 0.00 0.00 0.18 72 1035.6
20200221033557 40 24 7.0 0.0 0.00 0.00 0.18 72 1035.6
20200221033238 40 34 8.0 0.0 0.00 0.00 0.18 72 1035.6
20200221032609 41 37 8.0 0.0 0.00 0.00 0.18 71 1035.3
20200221032057 41 20 8.0 0.0 0.00 0.00 0.18 71 1035.3
20200221031725 41 38 9.0 0.0 0.00 0.00 0.18 71 1035.3
20200221031103 41 15 9.0 0.0 0.00 0.00 0.18 71 1035.1
20200221030606 41 30 7.0 0.0 0.00 0.00 0.18 72 1035.1
20200221030146 41 350 6.0 0.0 0.00 0.00 0.18 72 1035.1
20200221025559 41 24 6.0 0.0 0.00 0.00 0.18 72 1034.9
20200221025111 41 21 7.0 0.0 0.00 0.00 0.18 72 1034.9
20200221024747 41 16 7.0 0.0 0.00 0.00 0.18 71 1034.9
20200221024054 41 33 6.0 0.0 0.00 0.00 0.18 71 1034.8
20200221023553 41 26 7.0 0.0 0.00 0.00 0.18 71 1034.8
20200221023129 42 27 7.0 0.0 0.00 0.00 0.18 71 1034.8
20200221022553 42 32 8.0 0.0 0.00 0.00 0.18 70 1034.7
20200221022117 42 5 8.0 0.0 0.00 0.00 0.18 71 1034.7
20200221021606 42 18 8.0 0.0 0.00 0.00 0.18 71 1034.7
20200221021052 42 44 7.0 0.0 0.00 0.00 0.18 71 1034.5
20200221020551 42 341 7.0 0.0 0.00 0.00 0.18 71 1034.5
20200221020151 42 23 8.0 0.0 0.00 0.00 0.18 70 1034.5
20200221015550 42 21 9.0 0.0 0.00 0.00 0.18 70 1034.2
20200221015053 42 26 10.0 0.0 0.00 0.00 0.18 70 1034.2
20200221014609 43 19 9.0 0.0 0.00 0.00 0.18 71 1034.2
20200221014051 43 20 8.0 0.0 0.00 0.00 0.18 71 1034.0
20200221013559 43 17 9.0 0.0 0.00 0.00 0.18 71 1034.0
20200221013112 43 39 9.0 0.0 0.00 0.00 0.18 70 1034.0
20200221012553 43 26 8.0 0.0 0.00 0.00 0.18 71 1033.6
20200221012050 43 30 7.0 0.0 0.00 0.00 0.18 71 1033.6
20200221011642 43 18 8.0 0.0 0.00 0.00 0.18 71 1033.6
20200221011048 43 5 9.0 0.0 0.00 0.00 0.18 71 1033.4
20200221010548 43 41 8.0 0.0 0.00 0.00 0.18 71 1033.4
20200221010121 43 23 8.0 0.0 0.00 0.00 0.18 71 1033.4
20200221005552 44 19 7.0 0.0 0.00 0.00 0.18 71 1032.9
20200221005108 44 355 6.0 0.0 0.00 0.00 0.18 71 1032.9
20200221004613 44 24 8.0 0.0 0.00 0.00 0.18 70 1032.9
20200221004101 44 5 8.0 0.0 0.00 0.00 0.18 70 1032.7
20200221003547 44 5 7.0 0.0 0.00 0.00 0.18 70 1032.7
20200221003144 44 26 7.0 0.0 0.00 0.00 0.18 69 1032.7
20200221002547 45 5 9.0 0.0 0.00 0.00 0.18 68 1032.2
20200221002047 45 5 10.0 0.0 0.00 0.00 0.18 68 1032.2
20200221001814 45 18 9.0 0.0 0.00 0.00 0.18 68 1032.2
20200221001045 45 336 9.0 0.0 0.00 0.00 0.18 68 1031.9
20200221000546 46 355 10.0 0.0 0.00 0.00 0.18 67 1031.9
20200221000056 46 27 9.0 0.0 0.00 0.00 0.18 66 1031.9
20200220235545 46 355 8.0 0.0 0.00 0.00 0.18 66 1031.8
20200220235045 47 26 9.0 0.0 0.00 0.00 0.18 66 1031.8
20200220234629 47 35 9.0 0.0 0.00 0.00 0.18 65 1031.8
20200220234057 47 11 10.0 0.0 0.00 0.00 0.18 65 1031.3
20200220233548 48 33 11.0 0.0 0.00 0.00 0.18 64 1031.3
20200220233125 48 5 10.0 0.0 0.00 0.00 0.18 63 1031.3
20200220232543 48 34 10.0 0.0 0.00 0.00 0.18 64 1031.3
20200220232100 49 17 10.0 0.0 0.00 0.00 0.18 63 1031.3
20200220231604 49 22 9.0 0.0 0.00 0.00 0.18 63 1031.3
20200220231058 49 59 10.0 0.0 0.00 0.00 0.18 62 1031.1
20200220230542 50 18 11.0 0.0 0.00 0.00 0.18 62 1031.1
20200220230152 50 30 12.0 0.0 0.00 0.00 0.18 62 1031.1
20200220225547 50 16 11.0 0.0 0.00 0.00 0.18 60 1030.8
20200220225041 51 12 11.0 0.0 0.00 0.00 0.18 61 1030.8
20200220224557 51 27 11.0 0.0 0.00 0.00 0.18 59 1030.8
20200220224052 51 13 12.0 0.0 0.00 0.00 0.18 60 1030.7
20200220223541 51 35 12.0 0.0 0.00 0.00 0.18 59 1030.7
20200220223049 52 47 10.0 0.0 0.00 0.00 0.18 56 1030.7
20200220222540 52 360 9.0 0.0 0.00 0.00 0.18 56 1030.4
20200220222041 52 20 10.0 0.0 0.00 0.00 0.18 56 1030.4
20200220221631 52 5 11.0 0.0 0.00 0.00 0.18 56 1030.4
20200220221039 52 17 10.0 0.0 0.00 0.00 0.18 56 1030.3
20200220220545 52 27 8.0 0.0 0.00 0.00 0.18 57 1030.3
20200220220214 52 26 9.0 0.0 0.00 0.00 0.18 58 1030.3
20200220215540 52 5 10.0 0.0 0.00 0.00 0.18 56 1030.3
20200220215101 52 20 10.0 0.0 0.00 0.00 0.18 57 1030.3
20200220214632 52 360 11.0 0.0 0.00 0.00 0.18 58 1030.3
20200220214038 52 360 12.0 0.0 0.00 0.00 0.18 57 1029.8
20200220213539 53 27 9.0 0.0 0.00 0.00 0.18 57 1029.8
20200220213103 53 24 9.0 0.0 0.00 0.00 0.18 58 1029.8
20200220212539 53 30 10.0 0.0 0.00 0.00 0.18 57 1029.7
20200220212056 53 360 11.0 0.0 0.00 0.00 0.18 57 1029.7
20200220211641 53 26 11.0 0.0 0.00 0.00 0.18 57 1029.7
20200220211041 53 15 10.0 0.0 0.00 0.00 0.18 57 1029.7
20200220210537 53 24 10.0 0.0 0.00 0.00 0.18 57 1029.7
20200220210132 53 24 10.0 0.0 0.00 0.00 0.18 59 1029.7
20200220205540 53 24 10.0 0.0 0.00 0.00 0.18 57 1029.7
20200220205040 53 329 9.0 0.0 0.00 0.00 0.18 57 1029.7
20200220204546 53 13 8.0 0.0 0.00 0.00 0.18 58 1029.7
20200220204035 53 20 8.0 0.0 0.00 0.00 0.18 58 1029.9
20200220203534 52 27 8.0 0.0 0.00 0.00 0.18 58 1029.9
20200220203216 52 46 8.0 0.0 0.00 0.00 0.18 57 1029.9
20200220202534 52 51 9.0 0.0 0.00 0.00 0.18 60 1030.1
20200220202034 52 30 9.0 0.0 0.00 0.00 0.18 58 1030.1
20200220201557 52 17 9.0 0.0 0.00 0.00 0.18 60 1030.1
20200220201031 51 15 10.0 0.0 0.00 0.00 0.18 60 1030.1
20200220200531 51 31 9.0 0.0 0.00 0.00 0.18 62 1030.1
20200220200143 52 25 10.0 0.0 0.00 0.00 0.18 60 1030.1
20200220195534 52 28 9.0 0.0 0.00 0.00 0.18 60 1030.2
20200220195030 51 34 9.0 0.0 0.00 0.00 0.18 64 1030.2
20200220194605 51 19 11.0 0.0 0.00 0.00 0.18 59 1030.2
20200220194029 51 355 12.0 0.0 0.00 0.00 0.18 61 1030.2
20200220193529 51 42 11.0 0.0 0.00 0.00 0.18 60 1030.2
20200220193128 51 25 10.0 0.0 0.00 0.00 0.18 61 1030.2
20200220192528 51 25 10.0 0.0 0.00 0.00 0.18 63 1030.0
20200220192027 51 29 10.0 0.0 0.00 0.00 0.18 62 1030.0
20200220191557 51 5 9.0 0.0 0.00 0.00 0.18 62 1030.0
20200220191026 51 26 9.0 0.0 0.00 0.00 0.18 62 1030.2
20200220190527 50 24 9.0 0.0 0.00 0.00 0.18 67 1030.2
20200220190034 50 28 10.0 0.0 0.00 0.00 0.18 67 1030.2
20200220185525 50 34 8.0 0.0 0.00 0.00 0.18 67 1030.3
20200220185024 50 31 9.0 0.0 0.00 0.00 0.18 69 1030.3
20200220184540 50 18 10.0 0.0 0.00 0.00 0.18 68 1030.3